CTD
現有資料版本
2025-06-09
2025-06-09
備註
本資料集收錄溫鹽深儀(Conductivity Temperature Depth, CTD)的觀測資料。以下為所有施放CTD的紀錄:
| 編號 | 時間(UTC+0) | 經緯度 |
|---|---|---|
| L4D1 | 2025-04-19 11:07 | 21.312333, 120.575 |
| L1D1 | 2025-04-19 18:31 | 21.300167, 120.930833 |
| NTU2D1 | 2025-04-21 15:38 | 21.988333, 122.546667 |
| BD1 | 2025-04-23 02:15 | 21.1015, 124.289333 |
| BD2 | 2025-04-23 03:03 | 21.1015, 124.289167 |
| BD3 | 2025-04-23 04:48 | 21.1015, 124.289 |
| E1D1 | 2025-04-23 13:53 | 20.6, 124.999833 |
| E3D1 | 2025-04-23 22:39 | 20.299833, 125.399667 |
| E4D2 | 2025-04-24 03:03 | 20.299667, 125.799167 |
| E4D3 | 2025-04-24 04:26 | 20.299667, 125.799167 |
| E4D4 | 2025-04-24 05:38 | 20.299833, 125.799833 |
| E4D5 | 2025-04-24 11:34 | 20.3025, 125.798333 |
| E5D1 | 2025-04-24 14:36 | 20.300333, 126.2 |
| E6D1 | 2025-04-24 17:37 | 20.299667, 126.500333 |
| E7D1 | 2025-04-24 20:45 | 20.0005, 126.300333 |
| E8D1 | 2025-04-24 23:25 | 19.849667, 126.050667 |
| E9D1 | 2025-04-25 02:32 | 19.700167, 125.700167 |
| E9D2 | 2025-04-25 03:29 | 19.700167, 125.700167 |
| E9D3 | 2025-04-25 05:06 | 19.700167, 125.700167 |
| E10D1 | 2025-04-25 09:46 | 19.9995, 125.700333 |
| E4D6 | 2025-04-25 12:50 | 20.299667, 125.799833 |
| E11D1 | 2025-04-25 17:48 | 20.599833, 126.249667 |
| E12D1 | 2025-04-25 21:08 | 20.6195, 125.880167 |
| E13D1 | 2025-04-26 00:11 | 20.9505, 125.949667 |
| E14D1 | 2025-04-26 04:30 | 20.7, 125.5 |
| NTU1D1 | 2025-04-27 12:45 | 21.331667, 123.921333 |